Retour au catalogue

COSMOS 1579 COOLANT

ActifLEO
NORAD 26519·DEBRIS·🇷🇺 Russia

Lancé Jun 29, 1984 depuis Baikonur Cosmodrome

Loading…

Prochains Passages (prochaines 24 heures)

TLE

PériméSource: Space-Track

Époque: Sep 6, 2026, 22:21 UTC

1 26519U 84069L   26249.93159786  .00000029  00000-0  93882-4 0  9996
2 26519  65.0485  71.2548 0049456 326.4342 106.7321 13.90872936658740

Suivez COSMOS 1579 COOLANT en temps réel avec AllMySat

Download on the App Store